Location: Unspecified
(0.0000°N, 0.0000°E)
Time: 13:40:43
(UTC+02:00)

USA 116 - Visible Passes

Search period start: 18 September 2014 00:00
Search period end: 28 September 2014 00:00
Orbit: 405 x 834 km, 97.9° (Epoch: 18 November)

Date Brightness Start Highest point End Pass type
(mag) Time Alt. Az. Time Alt. Az. Time Alt. Az.
18 Sep 4.7 06:50:21 10° SSW 06:53:38 25° WSW 06:53:38 25° WSW visible
19 Sep 6.7 05:30:19 10° ESE 05:31:23 14° ESE 05:31:23 14° ESE visible
19 Sep 5.3 07:06:00 10° SW 07:08:22 15° WSW 07:08:22 15° WSW visible
20 Sep 6.1 05:44:09 10° SE 05:46:08 21° ESE 05:46:08 21° ESE visible
21 Sep 5.3 05:58:25 10° SSE 06:00:53 31° SE 06:00:53 31° SE visible
22 Sep 4.5 06:12:57 10° SSE 06:15:39 41° SSE 06:15:39 41° SSE visible
23 Sep 4.3 06:27:44 10° S 06:30:25 38° SSW 06:30:25 38° SSW visible
24 Sep 4.6 06:42:46 10° SSW 06:45:12 26° SW 06:45:12 26° SW visible
25 Sep 5.2 06:58:11 10° SSW 06:59:59 17° WSW 06:59:59 17° WSW visible
26 Sep 6.7 05:37:18 10° ESE 05:37:47 12° ESE 05:37:47 12° ESE visible
27 Sep 6.0 05:51:15 10° SE 05:52:35 19° SE 05:52:35 19° SE visible
